{"data":{"norad_id":62873,"epoch":"2026-05-25T02:57:44.390880Z","epoch_age_seconds":63590,"freshness":"FRESH","line1":"1 62873U 25022V   26145.12343045  .00011875  00000+0  41236-3 0  9997","line2":"2 62873  53.1567 134.5066 0000959  74.2188 285.8918 15.30203764 73601","mean_motion":15.30203764,"eccentricity":9.59e-5,"inclination_deg":53.1567,"raan_deg":134.5066,"arg_perigee_deg":74.2188,"mean_anomaly_deg":285.8918,"bstar":0.00041236,"rev_number":7360,"period_min":94.10511422582,"perigee_km":474.54659543115,"apogee_km":475.8610662025,"semimajor_km":6853.3408308168,"source":"CELESTRAK","updated_at":"2026-05-25T13:38:19.787428Z"}}